ATLAS 5 CENTAUR DEB, 44016

Orbit data source: Space-Track

ATLAS 5 CENTAUR DEB, 44016 is space debris in HEO originally from a launch on Wed, 17 Sep 2014 UTC launched from the Air Force Eastern Test Range (AFETR). Debris objects in space refer to the collection of defunct objects orbiting the Earth. Examples of debris include non-operational satellites, rocket bodies, and fragments generated from explosions, collisions, or faulty payload assembly.

Loading next visibility...
Identifier
44016, 2014-055BX
Orbit
HEO
Country
Flag of USUS
Related business
Flag of USUnited Launch Alliance/Lockheed Martin (US)
Manufacturer
Unknown
Mission
Spacecraft
Bus & Motor
Unknown
Mass
Unknown
Launch date (UTC)
2014-09-17 (12 years ago)
Launch vehicle
Unknown
Launch site
Air Force Eastern Test Range (AFETR)
Object type
Payload
Rocket body
Debris
Shape & HBR
Unknown shape, 1.1 m
Radar Cross Section
Medium (>0.1 m² and <1 m²)

Expand to show TLE details & history
Last TLE update: 2 weeks ago

TLE from 2 weeks ago
0 ATLAS 5 CENTAUR DEB
1 44016U 14055BX  26251.53597745 -.00000086  00000-0  00000-0 0  9996
2 44016  19.8252 144.6831 4693920 161.0339 224.8913  1.83868310 52933
Epoch: 2026-09-08T12:51Z
TLE epoch observation values (Epoch: 2026-09-08T12:51:48.451Z)
Latitude
0.00003°
Longitude
-35.87516°
Altitude
33,106.384 km
Speed
2.455 km/s
True Right ascension
09h 38m 42s
True Declination
0° 00' 00"
Sunlit
Object was in daylight at epoch
Visualization orbit readout
Latitude
Unknown
Longitude
Unknown
Altitude
Unknown
Speed
Unknown
Apparent Right ascension
Unknown
Apparent Declination
Unknown
Sunlit
N/A
Visualization observer readout
Local Sidereal Time
20:49:38
Azimuth
Unknown
Elevation
Unknown
Doppler factor
Unknown
Orbital elements
Apogee altitude
34,980.309 km
Perigee altitude
8,556.695 km
Semi-major axis
28,146.639 km
Eccentricity
0.46939
Inclination
19.8252°
RAAN
144.6831°
Arg. of periapsis
161.0339°
True anomaly
198.94069°
Mean anomaly
224.8913°
Eccentric anomaly
211.02836°
Mean motion
0.45962 °/min
Orbital period
783.25 mins
BSTAR
0
Loading maneuver chart data...
Computing Atmospheric mass density...

Documentation

Showing up to 5 results
|